Regional Weather Roundup
Issued by NWS Upton, NY

Current Version | Previous Version | Graphics & Text | Print | Product List | Glossary Off
Versions: 1 2 3 4 5 6 7 8 9 10 11 12 13 14 15 16 17 18 19 20 21 22 23 24 25 26 27 28 29 30 31 32 33 34 35 36 37 38 39 40 41 42 43 44 45 46 47 48 49 50

000
ASUS41 KOKX 081604
RWROKX

REGIONAL WEATHER ROUNDUP
NATIONAL WEATHER SERVICE NEW YORK NY
1100 AM EST MON FEB 08 2016

NOTE: "FAIR" INDICATES FEW OR NO CLOUDS BELOW 12,000 FEET WITH NO
SIGNIFICANT WEATHER AND/OR OBSTRUCTIONS TO VISIBILITY.

NYZ071-072-176-178-NJZ106-104-081700-
NEW YORK CITY METRO AREA


CITY           SKY/WX    TMP DP  RH WIND       PRES   REMARKS
CENTRAL PARK   LGT SNOW  32  26  78 NE13G18   29.82F VSB 3/4 WCI  22
LAGUARDIA APRT LGT SNOW  32  28  85 N9        29.81F VSB 3/4 WCI  24
KENNEDY INTL   SNOW      31  28  89 N14G20    29.81F VSB 1/2 WCI  21
NEWARK/LIBERTY FLURRIES  35  27  72 NE13      29.81S WCI  26
BRNX BOT. GARD   N/A     32  30  93 N3        29.82F
TETERBORO      LGT SNOW  34  26  72 NE9       29.81F WCI  27
$$

NYZ177-179-078>081-081700-
LONG ISLAND NEW YORK

CITY           SKY/WX    TMP DP  RH WIND       PRES   REMARKS
FARMINGDALE    SNOW      30  27  88 N13G24    29.78S VSB 1/2 WCI  20
ISLIP          LGT SNOW  29  25  85 N17G26    29.74S VSB 1   WCI  17
SHIRLEY        LGT SNOW  28  26  92 N16G23    29.76F VSB 3/4 WCI  16
RIVERHEAD        N/A     30  25  80 E3        29.73F
WESTHAMPTON    SNOW      27  26  96 N21G31    29.74F VSB 1/2 WCI  13
EAST HAMPTON   SNOW      27  25  91 N16G25    29.73F VSB 1/2 WCI  15
MONTAUK POINT    N/A     27  25  92 N18G30    29.72F WCI  14
$$

NYZ052-065-067-081700-
HUDSON VALLEY

CITY           SKY/WX    TMP DP  RH WIND       PRES   REMARKS
WHITE PLAINS   SNOW      28  24  85 N14G22    29.80S VSB 1/4 WCI  17
NEWBURGH       PTSUNNY   34  12  40 NE12G23   29.83S WCI  25
MONTGOMERY     CLOUDY    36  13  38 NE14      29.81F WCI  27
POUGHKEEPSIE   CLOUDY    36  12  37 NE6       29.84S WCI  31
ALBANY         CLOUDY    32  17  54 N7        29.88S WCI  26
$$

NJZ001-105-106-008-010-013-015-019>022-104-081700-
NEW JERSEY

CITY           SKY/WX    TMP DP  RH WIND       PRES   REMARKS
NEWARK/LIBERTY FLURRIES  35  27  72 NE13      29.81S WCI  26
TETERBORO      LGT SNOW  34  26  72 NE9       29.81F WCI  27
CALDWELL       CLOUDY    36  22  56 NE10      29.81S WCI  28
MORRISTOWN     CLOUDY    37  25  60 E12G18    29.81S WCI  30
SOMERVILLE     CLOUDY    39  25  57 NE7       29.78F WCI  34
SUSSEX         CLOUDY    35  22  58 NE13      29.80S WCI  26
ANDOVER          N/A     34  23  64 N7        29.80S WCI  28
TRENTON        CLOUDY    38  27  64 NE12      29.77F WCI  30
MILLVILLE      CLOUDY    42  30  62 N13G22    29.75F
ATLANTIC CITY  CLOUDY    39  31  72 NE18G28   29.74F WCI  30
WRIGHTSTOWN    CLOUDY    38  35  87 N15       29.74F WCI  30
TOMS RIVER     CLOUDY    36  28  75 NE16      29.77F WCI  26
BELMAR         CLOUDY    34  25  69 NE12G20   29.78S WCI  25
$$

PAZ047>061-062-071-081700-
EASTERN PENNSYLVANIA

CITY           SKY/WX    TMP DP  RH WIND       PRES   REMARKS
PHILADELPHIA   CLOUDY    41  27  57 N14       29.78F
ALLENTOWN      CLOUDY    39  25  57 NE12      29.79F WCI  32
SCRANTON       CLOUDY    36  24  62 E5        29.77F WCI  32
$$

CTZ002-004>006-009-010-012-RIZ004-006-007-MAZ004-011-015-081700-
SOUTHERN NEW ENGLAND
 IN CT

CITY           SKY/WX    TMP DP  RH WIND       PRES   REMARKS
BRADLEY INTL   LGT SNOW  23  12  62 N18G30    29.85S WCI   9
HARTFORD       SNOW      23  17  78 N16G26    29.85S VSB 1/2 WCI  10
DANBURY        LGT SNOW  25  19  78 N13       29.82F VSB 3/4 WCI  14
WTRBRY/OXFORD  LGT SNOW  21  10  63 NE16G23   29.78F VSB 1   WCI   7
BRIDGEPORT     LGT SNOW  27  22  81 N15       29.80F VSB 3/4 WCI  15
MERIDEN        SNOW      24  18  77 N14G23    29.83S VSB 1/2 WCI  12
NEW HAVEN      LGT SNOW  25  21  85 N20       29.79F VSB 3/4 WCI  11
CHESTER        SNOW      27  23  86 N15G22    29.77F VSB 1/4 WCI  15
GROTON         SNOW      23  22  96 N21G31    29.74F VSB 1/2 WCI   8
WILLIMANTIC    HVY SNOW  22  17  81 N13G21    29.81F VSB 1/4 WCI  10

 IN RI

CITY           SKY/WX    TMP DP  RH WIND       PRES   REMARKS
PROVIDENCE     LGT SNOW  21  17  84 N23G32    29.78F VSB 3/4 WCI   5
BLOCK ISLAND   CLOUDY    27  27 100 N22G31    29.68F VSB 1/2 WCI  12
WESTERLY       LGT SNOW  24  21  88 N13G26    29.74F FOG     WCI  12

 IN MA

CITY           SKY/WX    TMP DP  RH WIND       PRES   REMARKS
BOSTON         SNOW      18  14  84 N21G29    29.86S VSB 1/2 WCI   1
WORCESTER      SNOW      15   9  76 N16G24    29.78F VSB 1/2 WCI  -1
WESTFIELD      CLOUDY    25  -2  31 NE14G23   29.86S WCI  13
PROVINCETOWN   HVY SNOW  30  29  96 NE28G40   29.75F VSB 1/4 WCI  15
NANTUCKET      HVY SNOW  33  31  92 N37G46    29.60F VSB 1/4 WCI  18
$$

ANZ330-335-338-340-345-350-353-355-081700-
COASTAL MARINE OBSERVATIONS


STATION/POSITION TIME  SKY/WX   TEMP    WIND        PRES    VSBY  WAVE
                                AIR SEA DIR/SP/G                  HT/PER
                 (UTC)          (F)     (DEG/KT/KT) (MB)    (MI)  (FT/S)
NY HARB ENTRANCE 1450            33 44   20/ 23/ 27 1007.3         12/10
4S FIRE IS       NOT AVBL
20S FIRE ISLAND  1450            34 45   40/ 29/ 35 1005.5         13/11
GREAT SOUTH BAY  NOT AVBL
23SW MTP         1550            33 46   10/ 27/ 33 1003.8         15/11
HUDSON CANYON    1450            38 51              1001.9         24/11
KINGS POINT      1500            30 39   70/  7/ 13 1009.1
EXECUTION ROCKS  NOT AVBL
CENTRAL LI SOUND 1515            28      20/ 21/ 25   N/A           3/ 3
EASTERN LI SOUND 1500            29 42   10/ 19/ 27   N/A
ROBBINS REEF     1500            34      60/ 19/ 24 1008.4
$$


>>>>>>>>>>>>>>>>>>>>>>>>>>>> KEY <<<<<<<<<<<<<<<<<<<<<<<<<<<
>                                                          <
>     SKY/WX - SKY CONDITION/PRESENT WEATHER               <
>     TMP    - TEMPERATURE IN FAHRENHEIT                   <
>     DP     - DEWPOINT IN FAHRENHEIT                      <
>     RH     - RELATIVE HUMIDITY IN PERCENT                <
>     WIND   - DIRECTION AND SPEED IN MPH                  <
>     PRES   - MEAN SEA LEVEL PRESSURE IN INCHES OF HG     <
>     WCI    - WIND CHILL INDEX                            <
>     VSB    - VISIBILITY IN MILES                         <
>     HX     - HEAT INDEX                                  <
>     TC     - TEMPERATURE IN CELSIUS                      <
>     VRB    - VARIABLE WIND DIRECTION                     <
>                                                          <
>>>>>>>>>>>>>>>>>>>>>>>>>>>> KEY <<<<<<<<<<<<<<<<<<<<<<<<<<<





USA.gov is the U.S. government's official web portal to all federal, state and local government web resources and services.